Location: Broekland
(52.3610°N, 6.2005°E)
Time: 00:45:27
(UTC+00:00)

Cosmos 1812 Rocket - Pass Details

Date: 19 May 2025
Orbit: 601 x 624 km, 82.5° (Epoch: 22 June)

Event Time Altitude Azimuth Distance (km) Brightness Sun altitude
Exits shadow 20:49:01 11° 160° (SSE) 1,855 5.4 -9.5°
Maximum altitude 20:52:47 40° 93° (E) 901 4.1 -9.8°
Drops below altitude 10° 20:56:50 10° 24° (NNE) 1,961 6.5 -10.2°
Sets 20:59:09 0° 17° (NNE) 2,872 7.6 -10.4°
